Regional Weather Roundup
Issued by NWS

Home | Current Version | Previous Version | Graphics & Text | Print | Product List | Glossary On
Versions: 1 2 3 4 5 6 7 8 9 10 11 12 13 14 15 16 17 18 19 20 21 22 23 24 25 26 27 28 29 30 31 32 33 34 35 36 37 38 39 40 41 42 43 44 45 46 47 48 49 50
000
ASUS43 KLOT 061208
RWRIL

ILLINOIS REGIONAL WEATHER ROUNDUP
NATIONAL WEATHER SERVICE CHICAGO/ROMEOVILLE IL
600 AM CST SAT FEB 06 2016

NOTE: "FAIR" INDICATES FEW OR NO CLOUDS BELOW 12,000 FEET WITH NO
SIGNIFICANT WEATHER AND/OR OBSTRUCTIONS TO VISIBILITY.

* THESE STATIONS ARE NOT UNDER NWS QUALITY CONTROL. THEY ALSO MAY NOT
  REPORT WEATHER SUCH AS PRECIPITATION OR FOG.

ILZ001-002-007-009-015-016-024-061300-
NORTHWEST ILLINOIS

CITY           SKY/WX    TMP DP  RH WIND       PRES   REMARKS
MOLINE         CLOUDY    30  23  75 CALM      30.26F
6HR MIN TEMP:  27; 6HR MAX TEMP:  30;

STERLING*      MOCLDY    25  19  80 CALM      30.24F
SAVANNA*       CLOUDY    28  24  85 SW8       30.26R WCI  20
$$

ILZ003-004-008-010-011-017-018-061300-
NORTH CENTRAL ILLINOIS

CITY           SKY/WX    TMP DP  RH WIND       PRES   REMARKS
ROCKFORD       CLEAR     25  21  85 S6        30.27F WCI  18
6HR MIN TEMP:  24; 6HR MAX TEMP:  29;

FREEPORT*      CLEAR     24  22  90 S9        30.25F WCI  14
ROCHELLE*      CLEAR     24  22  91 S7        30.27S FOG     WCI  16
DE KALB*       CLEAR     22  21  94 SW7       30.26S FOG     WCI  14
PERU*          CLEAR     25  24  96 S7        30.29S FOG     WCI  17
$$

ILZ005-006-012>014-019>023-061300-
NORTHEAST ILLINOIS

CITY           SKY/WX    TMP DP  RH WIND       PRES   REMARKS
CHICAGO-OHARE  PTCLDY    25  21  85 SW6       30.26F WCI  18
6HR MIN TEMP:  25; 6HR MAX TEMP:  27;

CHICAGO-MIDWAY MOCLDY    28  21  75 SW6       30.28F WCI  22
6HR MIN TEMP:  27; 6HR MAX TEMP:  28;

AURORA         CLEAR     25  21  85 SW6       30.28R FOG     WCI  18
6HR MIN TEMP:  24; 6HR MAX TEMP:  27;

LANSING*       CLOUDY    24  22  91 S3        30.30R FOG
WAUKEGAN       CLEAR     24  21  88 SW9       30.23F WCI  14
6HR MIN TEMP:  24; 6HR MAX TEMP:  27;

DUPAGE AIRPORT CLEAR     23  18  81 SW7       30.27R WCI  15
6HR MIN TEMP:  22; 6HR MAX TEMP:  26;

WHEELING       PTCLDY    26  21  81 S5        30.27F WCI  20
6HR MIN TEMP:  26; 6HR MAX TEMP:  28;

MORRIS*        MOCLDY    25  22  89 S3        30.27S
NORTHERLY ISL    N/A     28  22  78 S2          N/A
$$

LMZ740>746-061300-
SOUTHERN LAKE MICHIGAN

STATION/POSITION SKY/WX   TEMP    WIND        PRES    VSBY  WAVE
                          AIR SEA DIR/SP/G                  HT/PER
                          (F)     (DEG/KT/KT) (MB)    (MI)  (FT/S)
HARRISON CRIB              30     260/ 10/ 12   N/A
BURNHAM HARBOR             27     210/  6/  8   N/A
CALUMET HARBOR             26     200/  5/  7 1024.8F
BURNS HARBOR               26     210/  5/  8 1026.4R
MICHIGAN CITY              26     190/  7/  9   N/A
$$

ILZ025>027-034>036-040-047-049-050-058-095>099-061300-
WEST-CENTRAL ILLINOIS

CITY           SKY/WX    TMP DP  RH WIND       PRES   REMARKS
QUINCY         CLEAR     28  18  66 CALM      30.27R
GALESBURG*     PTCLDY    26  24  90 CALM      30.27S
MACOMB*        CLEAR     25  22  89 CALM      30.30S
JACKSONVILLE*  CLEAR     31  24  74 S6        30.29S WCI  25
PITTSFIELD*    CLEAR     28  24  86 S3        30.29S
$$

ILZ028>032-037-038-041>044-048-051>054-059>061-061300-
CENTRAL ILLINOIS

CITY           SKY/WX    TMP DP  RH WIND       PRES   REMARKS
PONTIAC        MOCLDY    27  25  91 S3        30.31S
BLOOMINGTON    MOCLDY    26  25  96 SW7       30.30R WCI  18
DECATUR        MOCLDY    28  24  85 S7        30.30F WCI  21
PEORIA         MOCLDY    26  22  84 S3        30.30S
6HR MIN TEMP:  24; 6HR MAX TEMP:  27;

LACON*         CLOUDY    26  22  84 S3        30.30R
LINCOLN*       CLEAR     27  26  95 S5        30.30S WCI  22
SPRINGFIELD    CLEAR     28  24  85 S3        30.30S
6HR MIN TEMP:  24; 6HR MAX TEMP:  31;

TAYLORVILLE    CLEAR     28  25  86 S6        30.31R WCI  22
$$

ILZ033-039-045-046-055>057-062-063-061300-
EAST-CENTRAL ILLINOIS

CITY           SKY/WX    TMP DP  RH WIND       PRES   REMARKS
CHAMPAIGN      CLOUDY    27  23  85 SE7       30.31R WCI  19
RANTOUL*       CLOUDY    26  24  91 S3        30.31R
MATTOON        CLOUDY    27  23  85 S8        30.31S WCI  19
PARIS*         CLOUDY    25  23  94 S3        30.33S
$$

ILZ079-100>102-061300-
SOUTHWEST ILLINOIS

CITY           SKY/WX    TMP DP  RH WIND       PRES   REMARKS
ALTON          CLEAR     26  22  87 CALM      30.31S
BELLEVILLE     PTCLDY    24  24  99 CALM      30.31R
CAHOKIA*       CLEAR     25  20  81 CALM      30.32R
SPARTA*        PTCLDY    26  23  87 CALM      30.32S
$$

ILZ064>066-069>071-074>076-080>082-084>086-088>090-092>094-061300-
SOUTH-CENTRAL ILLINOIS

CITY           SKY/WX    TMP DP  RH WIND       PRES   REMARKS
CARBONDALE     PTCLDY    23  20  88 CALM      30.32S
6HR MIN TEMP:  22; 6HR MAX TEMP:  31;

CAIRO*         CLEAR     31  27  85 S5        30.35R WCI  26
EFFINGHAM*     CLOUDY    29  27  92 SE3       30.34S
MARION         CLEAR     28  25  86 S5        30.33R WCI  23
MT. VERNON     CLOUDY    28  21  74 CALM      30.32S
CENTRALIA*     CLOUDY    31  26  83 SE5       30.31S WCI  26
SALEM*         CLOUDY    31  25  77 SE6       30.31F WCI  25
METROPOLIS*    CLEAR     24  24  99 CALM      30.35S
$$

ILZ067-068-072-073-078-083-087-091-061300-
SOUTHEAST ILLINOIS

CITY           SKY/WX    TMP DP  RH WIND       PRES   REMARKS
LAWRENCEVILLE  MOCLDY    26  23  88 CALM      30.34F FOG
FLORA*         CLOUDY    29  26  86 CALM      30.34R
FAIRFIELD*     CLOUDY    28  25  86 CALM      30.32S
HARRISBURG*    CLEAR     24  21  91 CALM      30.34R
ROBINSON*      CLOUDY    23  22  96 CALM      30.35S FOG
CARMI*         PTCLDY    28  26  90 CALM      30.33S
$$

ABBREVIATIONS USED IN REMARKS
   TC - TEMPERATURE IN CELSIUS
  WCI - WIND CHILL INDEX
   HX - HEAT INDEX
  VSB - VISIBILITY
$$




USA.gov is the U.S. government's official web portal to all federal, state and local government web resources and services.